Fitchburg, MA

8:22 AM EDT on June 21, 2018 (GMT -0400)
Fitchburg Municipal

Weather History for KFIT - October, 2017

Change the Weather History Date:

Thursday, October 12, 2017

  Actual Average (WUND) Record (WUND)
Temperature  
Mean Temperature 52 °F -  
Max Temperature 62 °F - - (-1)
Min Temperature 41 °F - - (-1)
Degree Days  
Heating Degree Days 12    
Growing Degree Days 2 (Base 50)    
Moisture  
Dew Point 41 °F    
Average Humidity 63    
Maximum Humidity 93    
Minimum Humidity 44    
Precipitation  
Precipitation 0.00 in - - ()
Sea Level Pressure  
Sea Level Pressure 30.43 in    
Wind  
Wind Speed 6 mph (NE)    
Max Wind Speed 10 mph    
Max Gust Speed -    
Visibility 10 miles    
Events      
Averages and records for this station are not official NWS values.
T = Trace of Precipitation, MM = Missing Value Source: NWS Daily Summary

Daily Weather History Graph

Daily Weather History Graph

Search for Another Location

Airport or City:

Astronomy

Oct. 12, 2017 Rise Set
Actual Time 6:56 AM EDT 6:09 PM EDT
Civil Twilight 6:28 AM EDT 6:37 PM EDT
Nautical Twilight 5:55 AM EDT 7:10 PM EDT
Astronomical Twilight 5:23 AM EDT 7:42 PM EDT
Moon No Moon Rise 2:09 PM EDT (10/12)
Length of Visible Light 12h 09m
Length of Day
11h 12m
Waning Gibbous, 49% of the Moon is Illuminated
Oct 12
Waning Gibbous
Oct 19
New
Oct 27
First Quarter
Nov 4
Full
Nov 10
Last Quarter

Hourly Weather History & Observations

Time (EDT) Temp. Windchill Dew Point Humidity Pressure Visibility Wind Dir Wind Speed Gust Speed Precip Events Conditions
12:33 AM 55.9 °F - 46.0 °F 69% 30.32 in 10.0 mi NNE 5.8 mph - 0.00 in   Overcast
12:52 AM 55.9 °F - 45.0 °F 67% 30.33 in 10.0 mi North 4.6 mph - 0.00 in   Overcast
1:52 AM 55.9 °F - 45.0 °F 67% 30.34 in 10.0 mi North 6.9 mph - N/A   Overcast
2:52 AM 55.0 °F - 45.0 °F 69% 30.35 in 10.0 mi NNE 6.9 mph - N/A   Overcast
3:52 AM 55.0 °F - 43.0 °F 64% 30.38 in 10.0 mi NE 6.9 mph - N/A   Overcast
4:52 AM 54.0 °F - 41.0 °F 62% 30.39 in 10.0 mi Variable 4.6 mph - N/A   Overcast
5:52 AM 52.0 °F - 41.0 °F 66% 30.40 in 10.0 mi Variable 6.9 mph - N/A   Overcast
6:52 AM 51.1 °F - 39.0 °F 63% 30.42 in 10.0 mi NNE 4.6 mph - N/A   Overcast
7:52 AM 51.1 °F - 37.9 °F 61% 30.45 in 10.0 mi NNE 8.1 mph - N/A   Clear
8:52 AM 52.0 °F - 37.0 °F 57% 30.48 in 10.0 mi NE 10.4 mph - N/A   Clear
9:52 AM 54.0 °F - 39.0 °F 57% 30.48 in 10.0 mi NE 9.2 mph - N/A   Clear
10:52 AM 55.9 °F - 39.9 °F 55% 30.48 in 10.0 mi NE 5.8 mph - N/A   Clear
11:52 AM 57.9 °F - 39.9 °F 51% 30.47 in 10.0 mi NE 4.6 mph - N/A   Clear
12:52 PM 60.1 °F - 39.9 °F 47% 30.46 in 10.0 mi Variable 6.9 mph - N/A   Clear
1:52 PM 61.0 °F - 39.9 °F 46% 30.45 in 10.0 mi Variable 6.9 mph - N/A   Clear
2:52 PM 62.1 °F - 41.0 °F 46% 30.44 in 10.0 mi Variable 5.8 mph - N/A   Clear
3:52 PM 60.1 °F - 37.9 °F 44% 30.43 in 10.0 mi East 8.1 mph - N/A   Clear
4:52 PM 59.0 °F - 37.9 °F 46% 30.43 in 10.0 mi East 6.9 mph - N/A   Clear
5:52 PM 57.0 °F - 37.9 °F 49% 30.44 in 10.0 mi East 4.6 mph - N/A   Clear
6:52 PM 53.1 °F - 39.0 °F 59% 30.45 in 10.0 mi ENE 3.5 mph - N/A   Clear
7:52 PM 48.9 °F - 41.0 °F 74% 30.47 in 10.0 mi Calm Calm - N/A   Clear
8:52 PM 45.0 °F 43.5 °F 41.0 °F 86% 30.49 in 10.0 mi NNW 3.5 mph - N/A   Clear
9:52 PM 44.1 °F - 41.0 °F 89% 30.50 in 10.0 mi Calm Calm - N/A   Clear
10:52 PM 43.0 °F - 41.0 °F 93% 30.49 in 10.0 mi Calm Calm - N/A   Clear
11:52 PM 41.0 °F 39.0 °F 39.0 °F 93% 30.49 in 10.0 mi North 3.5 mph - N/A   Clear